カタログに戻る

STARLINK-5488

運用中通信VLEO
NORAD 57250·PAYLOAD·🇺🇸 United States

打ち上げ Jul 7, 2023 から Vandenberg Space Force Base

Loading…

次のパス (今後24時間)

TLE

最新Source: CelesTrak SupGP

元期: Sep 14, 2026, 19:59 UTC

1 57250C 23094AJ  26257.83312500  .00061088  00000+0  22124-2 0  2573
2 57250  43.0019  31.6413 0001495 272.7070 236.7207 15.27550427    16

AllMySatでSTARLINK-5488をリアルタイム追跡

Download on the App Store